Regional Weather Roundup
Issued by NWS

Home | Current Version | Previous Version | Graphics & Text | Print | Product List | Glossary On
Versions: 1 2 3 4 5 6 7 8 9 10 11 12 13 14 15 16 17 18 19 20 21 22 23 24 25 26 27 28 29 30 31 32 33 34 35 36 37 38 39 40 41 42 43 44 45 46 47 48 49 50
000
ASUS43 KMKX 222000
RWRWI

WISCONSIN REGIONAL WEATHER ROUNDUP
NATIONAL WEATHER SERVICE MILWAUKEE/SULLIVAN WI
300 PM CDT TUE JUL 22 2014

NOTE: "FAIR" INDICATES FEW OR NO CLOUDS BELOW 12,000 FEET WITH NO
SIGNIFICANT WEATHER AND/OR OBSTRUCTIONS TO VISIBILITY.

WIZ001-002-006>008-014>016-023>028-222100-
NORTHWEST WISCONSIN

CITY           SKY/WX    TMP DP  RH WIND       PRES   REMARKS
SUPERIOR ARPT  PTSUNNY   79  61  53 NW15      29.98R HX  80
ASHLAND        MOSUNNY   76  62  62 N15       29.99R
HAYWARD        CLOUDY    76  63  64 VRB7      30.01R
SIREN          PTSUNNY   79  60  52 N13       30.02R HX  80
RICE LAKE      PTSUNNY   78  61  56 W12       30.03R
LADYSMITH      CLOUDY    77  65  65 NW12G18   30.02R
EAU CLAIRE     MOSUNNY   85  65  51 NW15      29.98R HX  86
MENOMONIE      PTCLDY    82  64  53 NW15G21   30.00R HX  84
NEW RICHMOND   PTSUNNY   79  63  58 NW8G16    30.03R HX  80
OSCEOLA        PTSUNNY   79  63  57 NW10G18   30.04S HX  81
$$

WIZ003>005-009-010-017-018-222100-
NORTH CENTRAL WISCONSIN

CITY           SKY/WX    TMP DP  RH WIND       PRES   REMARKS
WOODRUFF       CLOUDY    72  63  73 NW6       29.98R
RHINELANDER    CLOUDY    76  64  66 NW10G18   29.98R
EAGLE RIVER    CLOUDY    74  61  63 NW17G24   29.96R
LAND O LAKES   CLOUDY    72  62  71 NW12G17   29.97R
PHILLIPS       CLOUDY    74  64  72 NW10G16   29.99R
TOMAHAWK       PTSUNNY   78  64  61 NW12G22   29.97R
MEDFORD        PTSUNNY   79  65  62 NW10G23   29.97R HX  81
MERRILL        PTSUNNY   83  67  60 NW13G18   29.94R HX  85
$$

WIZ029-030-035-036-043>047-222100-
CENTRAL WISCONSIN

CITY           SKY/WX    TMP DP  RH WIND       PRES   REMARKS
WAUSAU         SUNNY     85  65  51 W17       29.92R HX  86
MOSINEE        SUNNY     84  66  54 W15G22    29.95R HX  86
MARSHFIELD     SUNNY     84  66  54 NW15      29.96R HX  86
STEVENS POINT  SUNNY     84  65  53 NW15G22   29.92R HX  86
WAUPACA        PTSUNNY   93  69  44 NW12G18   29.89R HX  97
WAUTOMA        NOT AVBL
WISC RAPIDS    SUNNY     88  67  49 NW15      29.95R HX  91
CAMP DOUGLAS   NOT AVBL
$$

WIZ011>013-019>022-031-037>040-048>050-222100-
NORTHEAST WISCONSIN

CITY           SKY/WX    TMP DP  RH WIND       PRES   REMARKS
ANTIGO         MOSUNNY   81  65  57 NW15G23   29.94R HX  83
STURGEON BAY   MOSUNNY   88  72  58 SW17      29.85S HX  94
GREEN BAY      MOSUNNY   90  74  59 W9        29.85F HX  99
MANITOWOC      CLOUDY    88  73  62 W10G23    29.88R HX  96
APPLETON       PTSUNNY   88  72  58 SW12      29.88F HX  94
CLINTONVILLE   MOSUNNY   90  63  40 NW15G24   29.87R HX  90
OSHKOSH        MOSUNNY   89  75  63 VRB7      29.88S HX  99
$$

WIZ032>034-041-042-053>061-222100-
SOUTHWEST WISCONSIN

CITY           SKY/WX    TMP DP  RH WIND       PRES   REMARKS
LA CROSSE      SUNNY     89  68  49 N14       29.96R HX  93
SPARTA         SUNNY     87  67  50 NW12G17   29.95S HX  90
VIROQUA        FAIR      87  74  64 NW15      29.97R HX  95
BOSCOBEL       MOSUNNY   94  74  52 W9        29.94R HX 104
PRAIRIE DU CHI MOSUNNY   91  71  50 W10       29.94R HX  97
PLATTEVILLE    FAIR      88  78  72 W10G17    29.98R HX 102
$$

WIZ056-057-062-063-064-067-068-222100-
SOUTH CENTRAL WISCONSIN

CITY           SKY/WX    TMP DP  RH WIND       PRES   REMARKS
BARABOO/DELLS  PTSUNNY   90  70  52 W13       29.93R HX  95
LONE ROCK      NOT AVBL
WATERTOWN      CLOUDY    86  76  72 SW10G16   29.91R HX  96
MADISON        MOSUNNY   90  76  63 VRB7      29.92R HX 101
MIDDLETON      MOCLDY    92  74  54 W9        29.93R HX 102
MONROE         CLOUDY    86  73  66 SW14      29.95R HX  93
JANESVILLE     CLOUDY    88  73  62 SW12      29.93R HX  96
$$

WIZ051-052-058>065-066-070>072-222100-
SOUTHEAST WISCONSIN

CITY           SKY/WX    TMP DP  RH WIND       PRES   REMARKS
MILWAUKEE      PTSUNNY   89  73  59 SW17G24   29.89S HX  97
WAUKESHA       PTSUNNY   84  73  70 SW10G16   29.92S HX  91
MILWAUKEE/TIMM SUNNY     88  72  58 SW13G18   29.90R HX  94
RACINE         MOSUNNY   89  74  60 SW17G25   29.91F HX  98
BURLINGTON     PTSUNNY   84  74  71 SW9       29.92S HX  92
KENOSHA        MOSUNNY   89  74  60 SW14G22   29.91F HX  98
FOND DU LAC    MOSUNNY   88  74  63 W12       29.89S HX  96
SHEBOYGAN      PTSUNNY   86  75  69 W10       29.89R HX  95
WEST BEND      MOSUNNY   86  72  62 SW10G17   29.90R HX  92
JUNEAU         CLOUDY    87  60  40 SW14      29.92R HX  86
$$

LSZ147-162-222100-
LAKE SUPERIOR

STATION/POSITION TIME  TEMP    WIND        PRES    WAVE
                       AIR SEA DIR/SP/G            HT/PER
                 (UTC) (F)     (DEG/KT/KT) (MB)    (FT/S)
W MID LAKE BUOY  1850   48 40  270/ 12/ 14 1011.5R   3/ 5
PORT WING        1900   69     300/  4/  5 1014.6
SAXON HARBOR     1900          290/  9/ 15 1014.2R
$$

LMZ867-665-643>646-222100-
LAKE MICHIGAN

STATION/POSITION TIME  TEMP    WIND        PRES    WAVE
                       AIR SEA DIR/SP/G            HT/PER
                 (UTC) (F)     (DEG/KT/KT) (MB)    (FT/S)
N MID LAKE BUOY  1850   62 57  210/ 23/ 27 1008.6S   6/ 6
NORTHPORT PIER   1900   71     160/  9/ 15 1009.5R
KEWAUNEE LAKESHO 1900   66     170/  5/ 10 1011.6R
SHEBOYGAN LAKESH 1900   72     170/ 23/ 24 1010.7F
PORT WASHINGTON  1900          220/  7/ 14 1011.9F
ATWATER BUOY     1900   71     180/ 10     1012.8F
MILWAUKEE LAKESH 1900   83     220/  9/ 13   N/A
S MID LAKE BUOY  1850   71 68  170/ 16/ 17 1013.7F   2/ 4
KENOSHA   LAKESH 1900   87     210/ 12/ 20   N/A
$$

TC  - TEMPERATURE IN CELSIUS
VSB - VISIBILITY IN STATUTE MILES
WCI - WIND CHILL INDEX
HX  - HEAT INDEX




USA.gov is the U.S. government's official web portal to all federal, state and local government web resources and services.